Location: Cucq
(50.4773°N, 1.6202°E)
Time: 17:38:23
(UTC+00:00)

Cosmos 1733 - Pass Details

Date: 07 August 2020
Orbit: 504 x 522 km, 82.5° (Epoch: 24 September)

Event Time Altitude Azimuth Distance (km) Brightness Sun altitude
Exits shadow 01:43:00 29° 139° (SE) 976 4.3 -19.4°
Maximum altitude 01:44:21 40° 93° (E) 778 4.2 -19.3°
Drops below altitude 10° 01:47:58 10° 24° (NNE) 1,759 7.1 -19.1°
Sets 01:50:12 0° 17° (NNE) 2,655 8.3 -18.9°
